[Date Prev][Date Next][Thread Prev][Thread Next] - [Date Index][Thread Index][Author Index]
2 Line ISS Keps 2-26
- Subject: [sarex] 2 Line ISS Keps 2-26
- From: "Dave Larsen PhD" <doc@xxxxxxxxxxx>
- Date: Fri, 26 Mar 2004 00:02:32 -0800
ISS
1 25544U 98067A 04086.21512709 .00022626 00000-0 21008-3 0 4453
2 25544 51.6304 28.4797 0010517 320.8009 192.4835 15.67287820305291
----
Via the sarex mailing list at AMSAT.ORG courtesy of AMSAT-NA.
To unsubscribe, send "unsubscribe sarex" to Majordomo@amsat.org
AMSAT Home